Zurück zum Katalog

CZ-4 DEB

AktivSSO
NORAD 26150·DEBRIS·🇨🇳 China

Gestartet Oct 14, 1999 von Taiyuan Satellite Launch Center

Loading…

Nächste Überflüge (nächste 24 Stunden)

TLE

AktuellSource: Space-Track

Epoche: Sep 14, 2026, 04:27 UTC

1 26150U 99057AL  26257.18545064  .00001214  00000-0  74515-3 0  9992
2 26150  99.0916 333.1896 0342438 199.3358 189.3773 13.82144451327693

Verfolge CZ-4 DEB in Echtzeit mit AllMySat

Download on the App Store